Regional Weather Roundup
Issued by NWS

Home | Current Version | Previous Version | Graphics & Text | Print | Product List | Glossary Off
Versions: 1 2 3 4 5 6 7 8 9 10 11 12 13 14 15 16 17 18 19 20 21 22 23 24 25 26 27 28 29 30 31 32 33 34 35 36 37 38 39 40 41 42 43 44 45 46 47 48 49 50

000
ASUS43 KMKX 101721
RWRWI

WISCONSIN REGIONAL WEATHER ROUNDUP
NATIONAL WEATHER SERVICE MILWAUKEE/SULLIVAN WI
1100 AM CST SAT DEC 10 2016

NOTE: "FAIR" INDICATES FEW OR NO CLOUDS BELOW 12,000 FEET WITH NO
SIGNIFICANT WEATHER AND/OR OBSTRUCTIONS TO VISIBILITY.

WIZ001-002-006>008-014>016-023>028-101800-
NORTHWEST WISCONSIN

CITY           SKY/WX    TMP DP  RH WIND       PRES   REMARKS
SUPERIOR ARPT  CLOUDY     8  -3  63 W5        30.47F WCI  -1
ASHLAND        MOSUNNY    9   1  70 W7        30.45F WCI  -2
HAYWARD        CLOUDY     8  -2  63 SW7       30.40F WCI  -3
SIREN          SUNNY     10   2  68 CALM      30.42F
CUMBERLAND     CLOUDY    10   3  72 CALM      30.39F
RICE LAKE      CLOUDY    10   3  72 CALM      30.43F
CHETEK         CLOUDY    11   2  68 CALM      30.42F
LADYSMITH      CLOUDY    11   2  65 CALM      30.42F
EAU CLAIRE     CLOUDY    11   2  67 CALM      30.44F
MENOMONIE      CLOUDY    10   2  70 CALM      30.45F
NEW RICHMOND   CLOUDY     9   1  70 CALM      30.43F
OSCEOLA        CLOUDY     9   3  76 S3        30.46F
$$

WIZ003>005-009-010-017-018-101800-
NORTH CENTRAL WISCONSIN

CITY           SKY/WX    TMP DP  RH WIND       PRES   REMARKS
MANITOWISH WTR CLOUDY     5  -4  67 NW3       30.36F
ARBOR VITAE    CLOUDY     9   1  68 NW6       30.36F WCI  -1
WOODRUFF       CLOUDY     9   1  68 NW6       30.36F WCI  -1
RHINELANDER    MOSUNNY    8  -2  63 NW8       30.36F WCI  -4
EAGLE RIVER    PTSUNNY    8  -3  59 SW10      30.34F WCI  -6
LAND O LAKES   SUNNY     11  -1  60 W9        30.35F WCI  -2
PHILLIPS       CLOUDY     7  -2  66 SW3       30.37F
TOMAHAWK       CLOUDY     7  -3  64 W5        30.39F WCI  -1
MEDFORD        CLOUDY     9  -1  65 NW3       30.37F
MERRILL        CLOUDY     9  -1  64 NW6       30.41F WCI  -1
$$

WIZ029-030-035-036-043>047-101800-
CENTRAL WISCONSIN

CITY           SKY/WX    TMP DP  RH WIND       PRES   REMARKS
WAUSAU         CLOUDY    10   0  63 NW9       30.39F WCI  -3
MOSINEE        CLOUDY    10   3  72 NW7       30.40F WCI   0
MARSHFIELD     MOSUNNY   12   1  61 NW5       30.39F WCI   4
STEVENS POINT  MOSUNNY   12   1  60 NW7       30.41F WCI   1
WAUPACA        SUNNY     19   4  51 NW8       30.43F WCI   9
WAUTOMA        SUNNY     14   6  70 NW9       30.44F WCI   2
WISC RAPIDS    MOSUNNY   13   4  67 NW6       30.43F WCI   4
CAMP DOUGLAS   PTSUNNY   14   7  73 VRB3      30.45F
$$

WIZ011>013-019>022-031-037>040-048>050-101800-
NORTHEAST WISCONSIN

CITY           SKY/WX    TMP DP  RH WIND       PRES   REMARKS
ANTIGO         CLOUDY     8   0  71 NW8       30.37F WCI  -5
SHAWANO        CLOUDY    17   5  59 W6        30.43F WCI   8
OCONTO         CLOUDY    16   3  58 W8        30.43F WCI   5
STURGEON BAY   CLOUDY    16   5  62 W12       30.41F WCI   3
GREEN BAY      CLOUDY    20   6  55 W10       30.43F WCI   9
MANITOWOC      FLURRIES  18   6  59 MISG      30.44F
APPLETON       MOSUNNY   18   1  49 W9        30.41F WCI   6
CLINTONVILLE   CLOUDY    18   5  57 NW7       30.43F WCI   8
OSHKOSH        PTSUNNY   16   7  67 NW10      30.42F WCI   4
$$

WIZ032>034-041-042-053>061-101800-
SOUTHWEST WISCONSIN

CITY           SKY/WX    TMP DP  RH WIND       PRES   REMARKS
LA CROSSE      CLOUDY    14   6  70 SW3       30.49F
SPARTA         CLOUDY    13   7  77 CALM      30.47F
VIROQUA        CLOUDY    10   5  79 CALM      30.41F
BOSCOBEL       CLOUDY    18   9  68 S3        30.49F
PRAIRIE DU CHI CLOUDY    17   7  65 CALM      30.49F
PLATTEVILLE    CLOUDY    19  15  86 CALM      30.46F
$$

WIZ056-057-062-063-064-067-068-101800-
SOUTH CENTRAL WISCONSIN

CITY           SKY/WX    TMP DP  RH WIND       PRES   REMARKS
REEDSBURG      SUNNY     14   6  72 W3        30.45F
BARABOO/DELLS  SUNNY     15   7  70 W6        30.44F WCI   6
LONE ROCK      MOSUNNY   18   8  65 VRB3      30.48F
MINERAL POINT  CLOUDY    19  12  73 W6        30.44F WCI  11
MADISON        PTSUNNY   17   6  62 NW7       30.46F WCI   8
MIDDLETON      SUNNY     19  11  70 W7        30.46F WCI  10
WATERTOWN      SUNNY     17  10  74 W7        30.46F WCI   8
MONROE         CLOUDY    19  12  73 W5        30.45F WCI  13
JANESVILLE     MOSUNNY   21  12  68 W8        30.47F WCI  12
$$

WIZ051-052-058>065-066-070>072-101800-
SOUTHEAST WISCONSIN

CITY           SKY/WX    TMP DP  RH WIND       PRES   REMARKS
MILWAUKEE      PTSUNNY   23  10  57 W9        30.47F WCI  13
WAUKESHA       PTSUNNY   18   9  68 W10       30.46F WCI   6
MILWAUKEE/TIMM SUNNY     19   7  58 W9        30.47F WCI   9
RACINE         MOSUNNY   21  11  65 W10       30.47F WCI  10
BURLINGTON     MOSUNNY   24  17  76 W8        30.47F WCI  15
KENOSHA        MOSUNNY   21  12  68 W13       30.47F WCI   9
FOND DU LAC    MOSUNNY   18   7  62 W8        30.44F WCI   8
SHEBOYGAN      CLOUDY    19   7  59 W13       30.44F WCI   6
WEST BEND      MOSUNNY   18  10  73 NW8       30.44F WCI   7
JUNEAU         MOSUNNY   15   7  72 W6        30.45F WCI   6
$$

LSZ147-162-101800-
LAKE SUPERIOR

STATION/POSITION TIME  TEMP    WIND        PRES    WAVE
                       AIR SEA DIR/SP/G            HT/PER
                 (UTC) (F)     (DEG/KT/KT) (MB)    (FT/S)
DEVILS ISLAND    1700   10     270/ 15/ 19 1032.4F
PORT WING        1640    9     300/  8/ 13 1031.5F
SAXON HARBOR     1640    9     210/  7/ 11 1031.2F
$$

LMZ867-665-643>646-101800-
LAKE MICHIGAN

STATION/POSITION TIME  TEMP    WIND        PRES    WAVE
                       AIR SEA DIR/SP/G            HT/PER
                 (UTC) (F)     (DEG/KT/KT) (MB)    (FT/S)
CHAMBERS ISLAND  1640   18     240/  6/ 14 1029.1F
NORTHPORT PIER   1657   19     280/  8/ 19 1029.1F
SISTER BAY       1650   23     300/ 17/ 20   N/A
ALGOMA LAKESHORE 1636          310/  9/ 12   N/A
KEWAUNEE LAKESHO 1654   18     300/ 10/ 14 1029.6F
SHEBOYGAN LAKESH 1700   17     310/ 11/ 13 1031.8F
PORT WASHINGTON  1630   18     290/  7/ 15 1032.5F
KENOSHA   LAKESH 1700   21     290/ 12/ 15 1031.5
$$

TC  - TEMPERATURE IN CELSIUS
VSB - VISIBILITY IN STATUTE MILES
WCI - WIND CHILL INDEX
HX  - HEAT INDEX




USA.gov is the U.S. government's official web portal to all federal, state and local government web resources and services.